Theta_e
335 330 321 320 324 330 332 334 341 343 343 340 334 334 326 318 316 323 324 318 316 317 318 317 315 315 314 314 314 314 313 312 311 311 313 316 320 323 329 334 337 344 330
333 327 321 320 324 329 328 329 336 339 340 331 327 324 316 316 315 315 315 315 315 314 314 314 314 314 314 314 314 313 313 312 311 311 312 317 317 319 323 330 336 339 338
337 326 323 320 322 326 324 325 332 337 329 324 323 318 317 317 317 317 316 316 316 315 316 316 316 317 317 317 316 315 313 312 312 314 319 333 334 319 318 318 326 335 339
335 326 324 320 321 325 321 322 328 330 324 322 319 318 319 319 318 318 318 317 317 317 317 317 317 318 318 318 318 318 315 316 319 323 326 331 332 324 322 318 317 325 335
336 325 324 321 319 325 324 322 325 324 322 321 320 320 320 320 320 319 319 318 318 318 318 318 318 318 319 319 319 319 318 320 322 331 334 335 333 331 325 328 327 318 325
338 325 325 322 319 321 323 322 322 322 321 321 321 321 321 321 320 320 320 319 319 319 319 319 319 319 319 319 320 320 319 320 324 336 338 333 335 332 330 330 329 326 315
342 328 324 322 319 319 320 320 319 320 321 321 321 321 321 321 321 320 320 320 319 319 319 319 319 319 319 319 319 320 320 320 331 336 338 338 337 332 333 333 331 328 326
339 339 324 322 321 319 319 319 318 320 320 321 322 322 321 321 320 320 320 319 319 319 319 319 319 319 319 319 319 320 320 320 324 335 336 337 331 331 333 333 332 329 328
338 339 324 321 320 320 319 318 318 319 320 321 321 321 321 321 320 320 319 319 319 319 319 319 318 319 319 319 319 319 320 320 327 333 331 334 331 330 332 333 333 331 330
337 338 341 322 320 319 319 319 319 319 320 320 320 320 321 320 320 319 318 318 319 318 318 318 318 318 318 319 319 319 320 320 321 333 332 333 326 329 330 332 333 331 330
337 338 341 341 326 321 328 320 320 320 320 320 320 320 320 320 319 319 318 318 318 317 317 317 317 317 317 318 318 319 319 326 333 333 334 332 327 328 329 332 332 332 330
337 337 339 342 342 340 339 335 320 321 321 320 321 320 320 321 324 321 319 318 318 317 317 317 317 316 316 323 328 321 319 330 332 331 333 329 326 330 331 332 332 332 330
335 337 339 344 345 343 340 341 334 334 326 323 323 322 321 325 326 320 323 319 318 318 318 318 317 317 317 327 330 331 331 332 331 331 331 327 326 330 330 331 331 332 331
338 334 338 343 346 345 342 342 341 339 341 340 337 324 323 322 321 322 325 334 323 329 321 327 330 325 322 327 327 329 330 329 328 330 330 327 325 330 331 332 332 331 332
336 339 336 336 342 332 335 341 341 341 341 340 334 322 321 321 321 320 324 320 329 328 332 325 324 330 328 322 324 328 328 329 329 329 329 329 323 327 331 333 333 332 332
329 335 338 337 325 323 322 330 326 330 334 330 337 327 321 320 320 320 319 319 319 328 330 331 330 329 327 331 330 323 324 330 330 330 329 329 326 321 326 333 334 333 332
326 328 330 336 330 323 321 320 320 321 320 321 321 321 320 320 319 319 320 320 322 328 320 323 326 328 329 332 331 329 332 332 331 332 332 331 330 326 322 334 334 334 333
318 323 328 331 334 327 325 323 321 319 320 320 321 320 319 319 320 320 321 323 326 323 323 329 330 334 335 336 335 335 335 336 336 336 334 334 333 331 336 335 335 333 334
316 318 326 335 334 334 330 325 324 322 322 320 320 319 321 329 321 327 329 329 330 328 332 332 335 336 337 336 338 338 338 338 339 338 338 335 331 335 338 340 337 333 334
314 315 318 327 335 335 335 336 336 335 331 324 321 321 322 321 321 333 333 333 331 330 334 335 335 336 338 339 340 339 339 340 340 339 339 334 336 340 341 341 341 337 335
315 314 315 317 322 333 337 337 335 336 334 332 328 323 328 323 321 326 332 331 331 334 334 332 331 334 339 338 340 342 342 342 341 340 339 338 339 341 341 339 337 339 337
317 314 313 314 315 320 341 337 337 335 336 334 330 327 328 325 322 328 333 332 332 333 332 333 333 334 341 340 340 342 342 343 343 342 340 340 340 340 340 339 339 339 338
313 312 313 313 314 315 318 328 337 340 343 343 337 336 333 333 324 328 331 333 333 334 333 334 336 337 344 340 336 343 342 341 341 342 341 341 341 340 340 340 339 339 338
312 312 312 313 313 314 315 316 327 343 345 345 344 344 341 334 329 328 334 334 334 335 335 335 337 338 339 344 343 340 344 343 341 339 340 340 341 340 339 337 337 337 336
315 312 312 312 313 313 314 315 318 325 335 341 345 347 345 340 330 333 334 334 336 336 337 337 338 339 342 341 343 343 344 343 341 340 339 338 337 337 337 338 335 335 335
315 316 312 312 312 312 313 314 315 317 320 331 338 345 347 348 347 332 335 336 336 336 335 336 341 338 336 335 341 343 344 343 342 341 339 337 337 337 337 337 336 335 333
Wind_Speed
17 17 17 18 21 22 22 22 25 24 21 18 17 15 16 17 18 18 17 15 14 13 12 10 9 9 8 7 6 5 5 5 5 6 6 6 5 5 5 5 7 4 3
18 19 20 20 23 23 22 23 24 23 21 20 19 18 19 20 20 20 18 17 16 14 13 12 10 9 8 7 6 6 6 6 6 6 7 8 6 6 4 5 7 1 3
21 21 20 21 24 24 24 25 25 24 23 22 21 21 22 21 21 20 19 17 16 14 13 11 10 9 8 7 6 6 6 7 7 8 10 6 3 6 5 3 3 4 4
22 24 23 23 25 27 26 27 27 26 26 24 23 23 22 21 20 19 18 16 15 13 12 10 9 8 7 7 6 6 7 7 7 8 7 5 4 4 4 5 3 2 4
24 27 25 24 26 28 29 28 29 28 27 25 24 23 22 21 19 18 16 15 13 11 10 9 8 6 6 6 6 6 6 6 6 7 4 3 4 2 5 5 6 3 4
27 30 27 26 28 30 31 31 29 29 27 26 24 23 21 19 18 16 14 13 11 10 9 7 6 5 4 4 4 4 4 3 4 3 3 2 5 3 5 5 5 4 3
28 32 31 29 29 31 33 33 31 30 28 26 24 22 20 18 16 14 13 11 10 8 7 5 4 3 2 1 1 1 1 2 5 2 2 2 4 4 2 2 2 3 3
29 30 34 32 31 32 33 34 33 31 29 26 23 21 19 16 14 13 11 10 9 7 6 5 4 3 3 3 3 2 2 2 2 4 4 3 6 5 4 3 1 1 2
28 29 35 35 34 33 33 34 34 33 30 27 24 20 17 16 14 12 11 10 8 7 6 6 6 5 5 6 6 6 6 4 3 4 4 4 9 7 7 6 5 3 2
27 27 28 36 37 36 35 34 33 32 31 29 26 22 19 16 15 14 13 11 10 9 8 7 7 8 8 9 10 10 9 8 6 7 6 7 7 9 8 8 7 6 4
25 26 26 29 35 36 33 36 35 32 30 28 26 24 20 18 17 16 15 13 12 11 10 9 10 10 10 11 12 12 12 8 9 8 8 12 8 8 9 9 9 8 7
23 25 26 27 28 30 27 29 35 33 32 30 28 26 24 20 18 18 17 15 14 14 13 12 12 13 13 11 11 14 14 10 11 10 10 14 11 9 9 9 10 11 10
20 23 25 26 27 28 27 26 30 29 32 32 30 28 26 22 20 20 17 17 17 17 16 15 16 16 15 12 12 12 11 13 12 12 13 17 14 12 11 10 11 12 13
15 24 25 24 26 30 26 26 24 26 25 24 27 29 27 25 23 20 17 14 16 14 15 14 12 14 15 15 14 14 14 14 14 14 14 19 17 15 13 12 11 12 13
7 17 25 29 30 34 34 25 25 25 25 24 26 29 27 26 25 22 19 18 16 15 15 15 14 15 15 17 16 16 16 16 16 16 14 21 19 19 17 15 12 12 12
7 10 18 26 33 35 36 35 34 31 28 29 25 27 30 29 27 23 22 21 20 17 15 14 13 14 16 14 17 19 18 16 16 17 15 16 20 21 20 18 15 13 13
9 11 15 20 26 36 39 37 38 37 36 34 31 33 31 28 28 25 22 22 20 17 19 16 17 18 17 16 17 18 17 17 17 17 17 16 17 18 20 18 15 14 14
7 13 15 18 20 29 37 33 35 38 38 35 35 36 33 30 28 22 23 26 20 18 18 15 16 17 17 16 17 16 15 15 15 16 17 16 16 15 15 17 16 16 16
9 8 8 13 17 16 20 29 35 39 41 41 39 37 31 26 26 21 23 28 21 16 19 16 16 16 16 19 17 18 16 16 15 14 16 16 16 15 14 17 18 16 17
8 8 8 10 15 27 25 26 29 31 36 39 41 38 36 35 31 21 19 23 25 22 18 17 15 19 19 18 16 16 16 16 15 15 15 14 14 15 16 16 15 15 16
11 10 9 9 12 19 37 36 33 32 30 31 36 42 39 40 37 34 23 36 44 19 15 26 32 27 22 21 19 16 17 18 18 16 15 14 15 16 16 19 15 14 15
10 12 12 10 11 14 18 24 41 36 42 35 46 43 44 47 44 39 34 43 42 24 18 36 29 29 21 21 15 13 15 14 14 17 16 16 16 17 16 17 14 15 15
13 15 14 14 14 14 15 18 21 23 29 27 39 45 49 46 47 39 47 46 39 30 37 38 30 29 21 21 18 14 11 12 9 9 13 16 16 16 17 15 17 16 16
13 13 15 15 15 14 14 16 19 22 25 31 30 30 33 45 46 49 47 40 35 34 36 33 32 30 26 20 15 18 20 13 11 10 8 12 15 14 13 11 11 12 14
11 14 15 16 15 15 17 16 18 22 24 24 22 33 24 35 43 44 44 42 36 39 34 37 33 31 24 19 18 12 18 16 17 15 14 11 13 14 13 12 11 10 11
12 13 19 20 19 16 16 19 21 21 24 25 26 27 25 23 31 43 41 38 38 37 38 35 33 30 24 21 17 19 15 16 16 17 19 19 16 12 12 11 12 10 10
Wind_Direction
185 192 191 182 174 169 170 170 170 169 166 157 149 149 142 142 142 148 148 149 148 148 148 147 145 142 133 131 128 120 106 98 85 82 81 76 81 80 84 73 71 86 68
187 194 193 188 175 169 169 171 173 170 163 153 151 147 144 141 141 142 144 142 143 144 142 140 135 131 127 125 120 107 101 97 94 92 91 83 81 81 85 81 102 341 70
177 187 192 190 174 170 167 167 169 167 159 155 154 149 147 146 144 144 145 146 144 143 140 137 133 126 121 115 108 105 106 101 92 84 84 102 83 79 81 92 92 69 74
188 183 187 190 178 173 166 166 165 164 160 157 155 153 152 150 149 149 149 148 146 141 138 136 132 130 126 117 107 95 92 93 91 86 76 117 109 82 87 84 100 102 79
194 186 183 187 180 178 172 167 165 164 163 160 160 159 158 154 154 153 152 149 144 142 142 140 139 134 124 117 104 94 99 101 97 92 119 109 125 104 99 92 63 72 115
195 188 182 185 180 179 178 173 170 168 167 165 164 163 162 161 158 157 156 153 151 153 152 148 144 136 124 110 103 98 108 112 92 132 131 90 126 165 106 99 95 92 101
189 186 182 183 182 179 179 177 174 172 171 170 169 169 169 167 166 166 165 164 165 166 163 164 166 159 166 159 146 111 128 156 114 205 188 173 210 207 170 137 90 70 70
187 183 184 181 183 183 183 182 178 177 176 176 176 176 176 177 179 179 181 181 182 187 186 194 199 211 237 259 266 273 261 246 215 220 228 235 253 232 232 218 203 37 30
190 183 186 182 186 185 186 186 184 183 183 183 183 186 187 189 191 195 198 201 202 209 214 221 227 232 247 261 268 272 271 266 227 250 236 250 259 239 231 238 230 246 295
190 185 186 185 189 189 191 191 192 189 190 190 191 193 199 201 204 208 211 214 221 227 236 240 245 248 248 253 265 268 272 270 270 255 266 242 261 236 229 232 239 237 255
190 188 188 189 191 191 195 197 197 197 198 199 201 202 205 210 215 219 222 228 232 236 243 247 256 258 257 260 262 265 270 271 259 269 264 268 264 239 229 234 244 245 247
196 195 193 193 193 192 193 200 200 204 204 206 209 210 212 215 223 223 230 233 240 244 248 255 261 261 261 256 272 267 263 258 262 255 258 264 256 246 238 238 243 246 249
214 201 197 201 194 194 193 198 202 204 209 211 213 216 217 221 227 232 237 242 244 251 256 265 269 268 264 247 244 248 255 256 262 261 255 259 253 250 246 244 248 249 248
215 213 208 205 202 196 198 200 201 202 208 209 215 217 219 225 233 234 237 241 253 249 256 251 259 261 265 255 254 252 256 252 259 260 258 261 250 248 248 252 254 251 243
231 215 216 216 206 207 201 205 200 204 211 214 220 229 233 235 239 243 242 249 246 252 249 252 256 257 266 267 264 257 259 253 254 253 254 263 252 249 249 253 257 252 244
244 242 221 222 232 222 215 212 216 214 217 218 218 228 232 240 246 243 252 258 258 254 249 251 256 261 272 261 265 269 266 259 258 254 254 258 263 251 250 250 253 255 248
239 246 266 234 227 232 232 225 228 230 225 236 232 237 240 243 248 257 263 265 259 254 262 269 276 276 274 271 269 262 268 272 267 258 256 252 256 262 250 242 250 260 260
244 228 242 256 234 228 234 236 239 240 247 239 240 243 244 246 253 261 259 253 258 255 268 257 264 278 278 271 270 263 263 263 261 260 259 254 252 243 257 246 249 259 261
278 259 225 226 227 219 233 239 239 238 240 244 247 247 249 251 257 254 260 264 260 257 264 255 257 263 272 273 265 264 260 258 259 259 256 262 249 238 232 250 254 261 261
302 298 270 236 213 220 231 230 236 238 246 248 243 247 252 253 248 240 253 263 283 265 260 273 279 280 267 261 259 257 256 255 255 254 256 260 246 243 244 242 249 273 269
308 304 301 271 234 211 228 232 239 240 236 236 249 241 237 253 247 248 242 263 254 254 258 290 277 277 265 262 256 259 261 259 255 250 251 245 245 247 250 251 249 257 262
324 306 290 281 271 234 227 230 238 247 250 245 246 241 240 243 241 238 241 243 253 245 283 273 269 273 255 251 248 256 268 261 257 253 242 242 243 244 253 257 254 250 250
312 303 298 282 274 270 254 241 239 241 237 244 245 248 252 244 239 238 244 239 251 247 246 251 267 262 238 246 248 233 264 260 272 249 244 238 243 245 251 258 250 253 253
298 295 298 290 279 275 268 260 238 239 238 239 247 256 241 244 235 229 235 243 248 262 257 261 271 256 236 230 234 241 238 243 244 258 242 240 233 242 245 233 249 252 252
310 299 298 296 290 278 266 258 255 249 248 249 245 241 244 235 234 240 242 253 257 256 260 270 260 248 235 230 236 240 234 241 243 246 256 232 238 242 242 255 243 254 261
314 310 293 291 292 290 278 266 259 255 253 245 245 239 238 234 240 237 240 252 256 262 267 259 242 240 235 248 233 229 231 228 236 239 246 249 243 234 235 242 253 254 254